Tracking 18843 objects as of 20-November-2017
HD Live streaming from Space Station
objects crossing your sky now

FENGYUN 1C DEB

Track FENGYUN 1C DEB now!
10-day predictions


NORAD ID: 31387
Int'l Code: 1999-025BST
Perigee: 683.3 km
Apogee: 1,046.3 km
Inclination: 99.1 °
Period: 102.1 minutes
Semi major axis: 7235 km
RCS: 0.0046 m2 (small)
Launch date: May 10, 1999
Source: People's Republic of China (PRC)
Launch site: Taiyaun Space Center, China (TSC)

Note: This is SATELLITE DEBRIS
aabbcc
Your satellite tracking list
Your tracking list is empty




NASA's NSSDC Master Catalog

Two Line Element Set (TLE):
1 31387U 99025BST 17324.13449281  .00000198  00000-0  10239-3 0  9992
2 31387  99.0997  78.9620 0250841 135.9824 347.6102 14.10494046549083
Source of the keplerian elements: AFSPC